GW2963 Weather Reports


time (UTC)temp
F
wind
direction
speed
knots
gust
knots
rain 1hr
in
rain 24hr
in
rain mn
in
humidity
%
barometer
mb
20260505160300 57 12 3.5 3.5 0.00 0.00 0.00 87 1016.2
20260505153238 57 356 0.0 0.9 0.00 0.00 0.00 90 1015.7
20260505152735 56 274 4.3 6.1 0.00 0.00 0.00 90 1015.8
20260505152231 56 336 0.9 0.9 0.00 0.00 0.00 91 1015.6
20260505151726 56 346 0.9 0.9 0.00 0.00 0.00 91 1015.7
20260505151224 56 23 0.0 0.0 0.00 0.00 0.00 92 1015.8
20260505150720 56 14 0.0 0.0 0.00 0.00 0.00 92 1015.6
20260505150217 56 332 1.7 2.6 0.00 0.00 0.00 93 1015.8
20260505140645 54 355 0.9 1.7 0.00 0.00 0.00 95 1015.4
20260505140142 54 2 0.9 0.9 0.00 0.00 0.00 95 1015.2
20260505130106 54 231 1.7 1.7 0.00 0.00 0.00 96 1015.1
20260505124555 54 219 0.9 1.7 0.00 0.00 0.00 96 1015.2
20260505124052 54 310 1.7 2.6 0.00 0.00 0.00 96 1015.0
20260505123548 54 322 1.7 1.7 0.00 0.00 0.00 96 1014.8
20260505123045 54 309 0.9 1.7 0.00 0.00 0.00 96 1015.0
20260505122542 54 328 1.7 2.6 0.00 0.00 0.00 96 1015.1
20260505122039 54 285 0.9 0.9 0.00 0.00 0.00 96 1015.2
20260505121535 53 224 1.7 2.6 0.00 0.00 0.00 96 1015.2
20260505121032 53 250 1.7 1.7 0.00 0.00 0.00 97 1015.2
20260505120528 53 348 0.9 0.9 0.00 0.00 0.00 97 1015.1
20260505120024 53 358 0.0 0.0 0.00 0.00 0.00 97 1015.1
20260505115518 53 300 0.9 1.7 0.00 0.00 0.00 97 1015.0
20260505115017 53 333 0.9 0.9 0.00 0.00 0.00 97 1014.9
20260505114513 53 282 1.7 1.7 0.00 0.00 0.00 97 1015.0
20260505114009 53 334 0.9 0.9 0.00 0.00 0.00 97 1015.1
20260505113506 53 298 1.7 2.6 0.00 0.00 0.00 97 1014.9
20260505113003 53 257 0.9 1.7 0.00 0.00 0.00 98 1015.0
20260505112459 53 242 3.5 3.5 0.00 0.00 0.00 98 1014.8
20260505111956 53 292 3.5 5.2 0.00 0.00 0.00 98 1014.8
20260505111450 53 299 0.9 0.9 0.00 0.00 0.00 98 1014.9
20260505110947 53 229 2.6 3.5 0.00 0.00 0.00 98 1015.0
20260505110444 53 270 1.7 2.6 0.00 0.00 0.00 98 1015.0
20260505101914 53 13 0.0 0.9 0.00 0.00 0.00 98 1015.4
20260505101409 53 359 0.0 0.0 0.00 0.00 0.00 98 1015.4
20260505100905 53 240 1.7 2.6 0.00 0.00 0.00 98 1015.3
20260505100402 53 281 0.9 0.9 0.00 0.00 0.00 98 1015.4
20260505095857 53 327 0.0 0.9 0.00 0.00 0.00 98 1015.5
20260505095355 53 306 2.6 2.6 0.00 0.00 0.00 98 1015.4
20260505094851 52 274 0.9 0.9 0.00 0.00 0.00 98 1015.5
20260505094348 52 283 0.9 0.9 0.00 0.00 0.00 99 1015.3
20260505093844 53 329 0.0 0.0 0.00 0.00 0.00 99 1015.4
20260505093341 52 304 0.9 0.9 0.00 0.00 0.00 99 1015.4
20260505092838 52 333 0.0 0.0 0.00 0.00 0.00 99 1015.6
20260505092337 52 292 0.9 0.9 0.00 0.00 0.00 99 1015.4
20260505091833 52 333 0.9 1.7 0.00 0.00 0.00 99 1015.2
20260505091332 52 294 1.7 2.6 0.00 0.00 0.00 99 1015.5
20260505090829 52 292 0.9 0.9 0.00 0.00 0.00 99 1015.5
20260505090327 52 349 1.7 2.6 0.00 0.00 0.00 99 1015.6
20260505085824 52 32 0.0 0.0 0.00 0.00 0.00 99 1016.0
20260505085322 52 10 0.0 0.0 0.00 0.00 0.00 99 1015.9
20260505084819 52 3 0.9 0.9 0.00 0.00 0.00 99 1016.0
20260505084318 52 359 0.0 0.0 0.00 0.00 0.00 99 1015.9
20260505083814 52 271 1.7 2.6 0.00 0.00 0.00 99 1015.8
20260505083312 53 1 0.0 0.0 0.00 0.00 0.00 99 1015.8
20260505082808 53 348 0.0 0.9 0.00 0.00 0.00 99 1016.0
20260505082305 53 11 0.0 0.0 0.00 0.00 0.00 99 1015.9
20260505081801 53 337 0.0 0.9 0.00 0.00 0.00 99 1015.8
20260505081258 53 291 1.7 2.6 0.00 0.00 0.00 99 1016.1
20260505080755 53 326 0.9 1.7 0.00 0.00 0.00 99 1016.0
20260505080251 53 285 1.7 1.7 0.00 0.00 0.00 99 1015.9
20260505075746 53 298 1.7 2.6 0.00 0.00 0.00 99 1015.9
20260505075244 53 283 0.9 2.6 0.00 0.00 0.00 99 1016.0
20260505074741 53 357 0.0 0.9 0.00 0.00 0.00 99 1016.0
20260505074238 53 323 0.9 0.9 0.00 0.00 0.00 99 1016.2
20260505073736 52 3 0.9 0.9 0.00 0.00 0.00 99 1016.0
20260505073233 52 309 1.7 1.7 0.00 0.00 0.00 99 1016.1
20260505072730 52 296 1.7 1.7 0.00 0.00 0.00 99 1015.9
20260505072226 52 312 0.9 0.9 0.00 0.00 0.00 99 1016.3
20260505071721 52 352 0.0 0.0 0.00 0.00 0.00 98 1016.4
20260505071219 52 46 0.0 0.0 0.00 0.00 0.00 98 1016.3
20260505070716 52 325 1.7 1.7 0.00 0.00 0.00 98 1016.1
20260505070212 52 337 0.9 0.9 0.00 0.00 0.00 98 1016.2
20260505065708 52 358 0.0 0.0 0.00 0.00 0.00 98 1016.4
20260505065205 52 334 1.7 2.6 0.00 0.00 0.00 98 1016.4
20260505064702 52 358 1.7 1.7 0.00 0.00 0.00 98 1016.2
20260505064200 52 322 1.7 2.6 0.00 0.00 0.00 98 1016.2
20260505063657 52 334 2.6 5.2 0.00 0.00 0.00 98 1016.2
20260505063153 52 285 1.7 2.6 0.00 0.00 0.00 98 1015.8
20260505062649 52 272 1.7 3.5 0.00 0.00 0.00 98 1015.7
20260505062147 52 309 1.7 2.6 0.00 0.00 0.00 98 1015.8
20260505061644 52 310 0.9 0.9 0.00 0.00 0.00 98 1016.1
20260505061143 52 239 1.7 3.5 0.00 0.00 0.00 98 1016.3
20260505060640 52 302 2.6 3.5 0.00 0.00 0.00 98 1016.4
20260505060136 52 316 2.6 2.6 0.00 0.00 0.00 98 1016.2
20260505055631 52 348 0.9 0.9 0.00 0.00 0.00 98 1016.3
20260505055128 52 262 3.5 5.2 0.00 0.00 0.00 98 1016.3
20260505054626 51 248 1.7 3.5 0.00 0.00 0.00 98 1016.3
20260505054124 51 311 3.5 3.5 0.00 0.00 0.00 98 1016.2
20260505053621 51 302 2.6 2.6 0.00 0.00 0.00 98 1016.4
20260505053117 51 352 0.9 1.7 0.00 0.00 0.00 98 1016.3
20260505052614 51 23 0.0 0.0 0.00 0.00 0.00 98 1016.4
20260505052112 51 14 0.0 0.0 0.00 0.00 0.00 98 1016.3
20260505051608 51 337 0.9 0.9 0.00 0.00 0.00 98 1016.4
20260505051107 51 7 0.0 0.0 0.00 0.00 0.00 98 1016.5
20260505050604 51 350 0.0 0.9 0.00 0.00 0.00 98 1016.4
20260505041532 51 334 0.0 0.9 0.00 0.00 0.00 97 1017.3
20260505041030 51 300 0.0 0.9 0.00 0.00 0.00 97 1017.4
20260505040527 51 276 0.9 0.9 0.00 0.00 0.00 97 1017.4
20260505040024 51 350 0.0 0.0 0.00 0.00 0.00 97 1017.2
20260505035520 51 23 0.0 0.0 0.00 0.00 0.00 97 1017.2
20260505035017 51 24 1.7 1.7 0.00 0.00 0.00 97 1016.8
20260505034513 52 7 0.0 0.0 0.00 0.00 0.00 97 1016.1
20260505034010 52 355 0.0 0.0 0.00 0.00 0.00 97 1016.0
20260505033507 52 309 1.7 1.7 0.00 0.00 0.00 97 1015.4
20260505033005 52 338 0.9 1.7 0.00 0.00 0.00 97 1015.6
20260505032502 52 277 3.5 3.5 0.00 0.00 0.00 97 1015.6
20260505031959 53 309 0.9 1.7 0.00 0.00 0.00 97 1015.7
20260505031455 52 2 0.9 0.9 0.00 0.00 0.00 96 1015.5
20260505030952 52 348 1.7 2.6 0.00 0.00 0.00 96 1015.3
20260505030449 53 348 0.9 1.7 0.00 0.00 0.00 96 1015.5
20260505025943 53 312 0.9 0.9 0.00 0.00 0.00 96 1015.7
20260505025441 53 290 1.7 1.7 0.00 0.00 0.00 96 1015.9
20260505024940 53 306 1.7 1.7 0.00 0.00 0.00 96 1016.1
20260505024437 53 308 2.6 3.5 0.00 0.00 0.00 95 1016.0
20260505023934 53 312 2.6 3.5 0.00 0.00 0.00 95 1016.0
20260505023431 53 325 1.7 2.6 0.00 0.00 0.00 95 1015.7
20260505022928 53 310 2.6 3.5 0.00 0.00 0.00 95 1015.9
20260505022426 53 307 0.9 1.7 0.00 0.00 0.00 95 1016.2
20260505021923 53 285 3.5 3.5 0.00 0.00 0.00 95 1016.1
20260505021419 54 270 0.9 0.9 0.00 0.00 0.00 95 1016.1
20260505020915 54 252 2.6 2.6 0.00 0.00 0.00 95 1015.9
20260505020410 54 25 0.0 0.9 0.00 0.00 0.00 95 1016.0
20260505015908 54 270 3.5 5.2 0.00 0.00 0.00 95 1016.0
20260505015405 54 312 4.3 6.1 0.00 0.00 0.00 95 1015.9
20260505014902 54 10 0.0 0.0 0.00 0.00 0.00 95 1016.2
20260505014359 54 215 0.9 1.7 0.00 0.00 0.00 95 1016.2
20260505013856 54 31 0.0 0.0 0.00 0.00 0.00 95 1016.3
20260505013353 55 25 0.0 0.0 0.00 0.00 0.00 95 1016.2
20260505012851 55 17 0.0 0.0 0.00 0.00 0.00 95 1016.5
20260505012349 55 5 0.0 0.0 0.00 0.00 0.00 95 1016.4
20260505011844 55 325 0.9 0.9 0.00 0.00 0.00 95 1016.4
20260505011341 55 340 0.0 0.0 0.00 0.00 0.00 95 1016.4
20260505010837 55 286 0.9 0.9 0.00 0.00 0.00 95 1016.4
20260505010333 55 5 0.9 0.9 0.00 0.00 0.00 94 1016.5
20260505005830 55 344 0.9 0.9 0.00 0.00 0.00 94 1016.4
20260505005327 55 9 0.9 0.9 0.00 0.00 0.00 94 1016.4
20260505004825 55 313 2.6 3.5 0.00 0.00 0.00 94 1016.6
20260505004320 55 286 1.7 3.5 0.00 0.00 0.00 94 1016.5
20260505003818 55 285 1.7 1.7 0.00 0.00 0.00 94 1016.6
20260505003315 56 20 0.9 0.9 0.00 0.00 0.00 94 1016.4
20260505002811 56 10 0.0 0.0 0.00 0.00 0.00 93 1016.6
20260505002308 56 25 0.0 0.9 0.00 0.00 0.00 93 1016.6
20260505001807 56 357 0.0 0.9 0.00 0.00 0.00 92 1016.6
20260505001303 56 9 0.0 0.0 0.00 0.00 0.00 92 1016.5
20260505000800 56 2 0.0 0.0 0.00 0.00 0.00 91 1016.5
20260505000258 56 356 0.0 0.0 0.00 0.00 0.00 91 1016.4
20260504235754 57 318 0.9 0.9 0.00 0.00 0.00 90 1016.3
20260504235251 57 298 0.9 0.9 0.00 0.00 0.00 90 1016.3
20260504234748 57 357 0.9 0.9 0.00 0.00 0.00 89 1016.0
20260504234246 57 334 0.0 0.9 0.00 0.00 0.00 88 1016.2
20260504233742 57 355 0.0 0.9 0.00 0.00 0.00 88 1016.3
20260504233237 57 302 1.7 1.7 0.00 0.00 0.00 86 1016.1
20260504232735 58 336 0.9 0.9 0.00 0.00 0.00 84 1016.1
20260504232232 58 3 0.9 0.9 0.00 0.00 0.00 83 1016.2
20260504231728 58 12 0.0 0.9 0.00 0.00 0.00 83 1016.4
20260504231225 59 326 0.9 0.9 0.00 0.00 0.00 82 1016.1
20260504230721 59 297 2.6 3.5 0.00 0.00 0.00 80 1016.2
20260504230220 59 302 2.6 2.6 0.00 0.00 0.00 79 1015.9
20260504225718 60 323 0.0 0.0 0.00 0.00 0.00 78 1016.1
20260504225214 60 304 1.7 2.6 0.00 0.00 0.00 75 1016.2
20260504224711 60 295 2.6 5.2 0.00 0.00 0.00 74 1016.4
20260504224209 60 300 1.7 1.7 0.00 0.00 0.00 73 1016.4
20260504223705 60 247 1.7 2.6 0.00 0.00 0.00 73 1016.4
20260504223200 61 2 0.0 0.0 0.00 0.00 0.00 72 1016.4
20260504222658 61 354 0.9 1.7 0.00 0.00 0.00 72 1016.4
20260504222154 61 269 1.7 1.7 0.00 0.00 0.00 70 1016.3
20260504221652 62 313 0.0 0.9 0.00 0.00 0.00 71 1016.3
20260504221149 62 302 0.9 0.9 0.00 0.00 0.00 71 1016.3
20260504220645 62 277 2.6 3.5 0.00 0.00 0.00 69 1016.3
20260504220143 62 282 1.7 1.7 0.00 0.00 0.00 66 1016.1
20260504215639 62 212 2.6 5.2 0.00 0.00 0.00 63 1016.1
20260504215136 62 257 1.7 2.6 0.00 0.00 0.00 63 1016.1
20260504214632 62 272 1.7 3.5 0.00 0.00 0.00 61 1016.2
20260504214130 63 287 2.6 3.5 0.00 0.00 0.00 61 1016.2
20260504213625 63 305 1.7 2.6 0.00 0.00 0.00 58 1015.9
20260504213122 63 238 1.7 2.6 0.00 0.00 0.00 57 1016.1
20260504212618 63 320 1.7 1.7 0.00 0.00 0.00 56 1016.1
20260504212115 64 186 3.5 5.2 0.00 0.00 0.00 56 1016.1
20260504211613 64 313 1.7 2.6 0.00 0.00 0.00 56 1016.3
20260504211109 64 267 1.7 2.6 0.00 0.00 0.00 57 1016.1
20260504210607 64 287 3.5 6.1 0.00 0.00 0.00 56 1016.1
20260504205601 64 303 1.7 1.7 0.00 0.00 0.00 56 1016.3
20260504205058 64 354 0.9 1.7 0.00 0.00 0.00 57 1016.5
20260504204556 64 323 4.3 6.1 0.00 0.00 0.00 56 1016.4
20260504204055 64 272 3.5 5.2 0.00 0.00 0.00 54 1016.1
20260504203553 64 304 0.9 1.7 0.00 0.00 0.00 55 1016.1
20260504203050 64 238 3.5 3.5 0.00 0.00 0.00 56 1016.1
20260504202545 63 300 2.6 3.5 0.00 0.00 0.00 57 1016.1
20260504202042 65 207 3.5 3.5 0.00 0.00 0.00 55 1016.2
20260504201539 64 348 0.9 0.9 0.00 0.00 0.00 59 1016.1
20260504201037 64 3 1.7 2.6 0.00 0.00 0.00 57 1016.3
20260504200533 64 13 0.9 2.6 0.00 0.00 0.00 60 1016.3
20260504200031 64 16 1.7 1.7 0.00 0.00 0.00 60 1016.3
20260504195526 65 0 2.6 3.5 0.00 0.00 0.00 59 1016.1
20260504195023 64 0 2.6 2.6 0.00 0.00 0.00 59 1016.2
20260504194520 65 42 1.7 2.6 0.00 0.00 0.00 58 1016.2
20260504194015 65 52 0.9 0.9 0.00 0.00 0.00 57 1016.3
20260504193512 65 208 0.9 1.7 0.00 0.00 0.00 57 1016.1
20260504193011 65 253 4.3 5.2 0.00 0.00 0.00 58 1016.2
20260504192509 66 234 3.5 3.5 0.00 0.00 0.00 57 1016.3
20260504192007 66 348 2.6 3.5 0.00 0.00 0.00 54 1016.4
20260504191504 65 151 1.7 1.7 0.00 0.00 0.00 57 1016.3
20260504191000 66 292 1.7 1.7 0.00 0.00 0.00 56 1016.4
20260504190455 65 347 0.9 1.7 0.00 0.00 0.00 58 1016.4
20260504185952 65 278 0.9 1.7 0.00 0.00 0.00 56 1016.3
20260504185449 65 278 1.7 2.6 0.00 0.00 0.00 55 1016.3
20260504184946 65 316 0.9 1.7 0.00 0.00 0.00 58 1016.5
20260504184441 65 341 2.6 5.2 0.00 0.00 0.00 59 1016.3
20260504183937 65 206 2.6 3.5 0.00 0.00 0.00 59 1016.3
20260504183434 66 239 0.9 0.9 0.00 0.00 0.00 58 1016.2
20260504182933 67 310 0.9 0.9 0.00 0.00 0.00 58 1016.1
20260504182429 66 17 1.7 2.6 0.00 0.00 0.00 61 1016.1
20260504181926 65 27 0.9 0.9 0.00 0.00 0.00 61 1016.2
20260504181423 66 8 0.9 1.7 0.00 0.00 0.00 62 1016.1
20260504180922 66 284 4.3 6.1 0.00 0.00 0.00 61 1016.2
20260504180421 65 293 2.6 3.5 0.00 0.00 0.00 62 1016.2
20260504175918 65 342 0.0 0.9 0.00 0.00 0.00 57 1016.2
20260504175415 65 278 1.7 1.7 0.00 0.00 0.00 62 1016.3
20260504174913 64 255 2.6 3.5 0.00 0.00 0.00 64 1016.0
20260504174410 65 301 3.5 5.2 0.00 0.00 0.00 65 1016.2
20260504173908 63 269 1.7 2.6 0.00 0.00 0.00 69 1016.1
20260504173403 64 268 2.6 2.6 0.00 0.00 0.00 67 1016.2
20260504172901 64 286 2.6 3.5 0.00 0.00 0.00 68 1016.4
20260504172357 63 253 1.7 1.7 0.00 0.00 0.00 70 1016.4
20260504171853 63 310 1.7 2.6 0.00 0.00 0.00 72 1016.2
20260504171351 62 311 0.0 0.9 0.00 0.00 0.00 74 1016.2
20260504170848 61 282 3.5 3.5 0.00 0.00 0.00 73 1016.2
20260504170344 61 269 3.5 3.5 0.00 0.00 0.00 75 1016.1